Tracking 28915 objects as of 29-May-2024
HD Live streaming from Space Station
objects crossing your sky now

MOS 1B (MOMO 1B)

Track MOS 1B (MOMO 1B) now!
10-day predictions
MOS 1B (MOMO 1B) is classified as:


NORAD ID: 20478
Int'l Code: 1990-013A
Perigee: 910.9 km
Apogee: 920.3 km
Inclination: 99.3 °
Period: 103.2 minutes
Semi major axis: 7286 km
RCS: 3.7354 m2 (large)
Launch date: February 7, 1990
Source: Japan (JPN)
Launch site: TANEGASHIMA SPACE CENTER (TNSTA)
Your satellite tracking list
Your tracking list is empty




NASA's NSSDC Master Catalog

Two Line Element Set (TLE):
1 20478U 90013A   24150.13181161  .00000279  00000-0  23822-3 0  9996
2 20478  99.3241 195.2954 0006448  68.7263 291.4586 13.95789342667735
Source of the keplerian elements: AFSPC